TimeMDT,TemperatureF,Dew PointF,Humidity,Sea Level PressureIn,VisibilityMPH,Wind Direction,Wind SpeedMPH,Gust SpeedMPH,PrecipitationIn,Events,Conditions,WindDirDegrees,DateUTC
12:53 AM,27.0,7.0,43,29.94,10.0,NW,11.5,-,N/A,,Partly Cloudy,310,2013-03-22 06:53:00
1:53 AM,27.0,8.1,45,29.92,10.0,West,10.4,-,N/A,,Mostly Cloudy,260,2013-03-22 07:53:00
2:53 AM,26.1,7.0,44,29.92,10.0,WSW,9.2,-,N/A,,Partly Cloudy,250,2013-03-22 08:53:00
3:53 AM,26.1,7.0,44,29.91,10.0,WSW,11.5,-,N/A,,Clear,250,2013-03-22 09:53:00
4:53 AM,25.0,7.0,46,29.90,10.0,West,10.4,-,N/A,,Clear,260,2013-03-22 10:53:00
5:53 AM,23.0,7.0,50,29.91,10.0,WSW,9.2,-,N/A,,Clear,240,2013-03-22 11:53:00
6:53 AM,21.0,7.0,55,29.93,10.0,WSW,9.2,-,N/A,,Partly Cloudy,240,2013-03-22 12:53:00
7:53 AM,21.9,8.1,55,29.95,10.0,SW,8.1,-,N/A,,Partly Cloudy,230,2013-03-22 13:53:00
8:53 AM,24.1,9.0,53,29.97,10.0,South,3.5,-,N/A,,Scattered Clouds,170,2013-03-22 14:53:00
9:53 AM,33.1,14.0,46,29.95,10.0,NNW,10.4,18.4,N/A,,Mostly Cloudy,340,2013-03-22 15:53:00
10:53 AM,30.9,21.0,67,29.96,9.0,NNE,11.5,-,0.00,Snow,Light Snow,30,2013-03-22 16:53:00
10:59 AM,30.0,21.9,72,29.88,4.0,NNE,9.2,-,0.00,Snow,Light Snow,30,2013-03-22 16:59:00
11:20 AM,28.0,23.0,81,29.89,2.0,North,9.2,-,0.00,Snow,Light Snow,360,2013-03-22 17:20:00
11:22 AM,28.0,24.1,85,29.89,0.8,North,10.4,-,0.00,Snow,Light Snow,10,2013-03-22 17:22:00
11:53 AM,28.0,26.1,92,29.99,0.8,North,11.5,-,0.01,Snow,Light Snow,10,2013-03-22 17:53:00
12:53 PM,28.9,27.0,92,30.01,0.5,North,5.8,-,0.02,Fog-Snow,Snow,360,2013-03-22 18:53:00
1:20 PM,28.0,26.1,92,29.91,0.5,NE,10.4,-,0.02,Fog-Snow,Snow,40,2013-03-22 19:20:00
1:53 PM,27.0,25.0,92,30.02,0.5,North,15.0,-,0.04,Fog-Snow,Snow,10,2013-03-22 19:53:00
1:56 PM,27.0,25.0,92,29.92,0.8,North,12.7,-,0.00,Snow,Light Snow,10,2013-03-22 19:56:00
2:12 PM,27.0,24.1,89,29.92,0.8,NNE,16.1,-,0.00,Snow,Light Snow,20,2013-03-22 20:12:00
2:17 PM,27.0,24.1,89,29.92,0.8,NNE,13.8,-,0.00,Snow,Light Snow,20,2013-03-22 20:17:00
2:41 PM,27.0,21.9,81,29.93,8.0,NNE,12.7,-,0.00,,Overcast,30,2013-03-22 20:41:00
2:53 PM,28.0,21.9,78,30.04,10.0,NNE,13.8,-,0.00,,Overcast,30,2013-03-22 20:53:00
3:53 PM,28.9,21.0,72,30.06,10.0,NE,12.7,-,0.00,,Overcast,40,2013-03-22 21:53:00
4:53 PM,28.9,19.9,69,30.09,10.0,NNE,13.8,-,N/A,,Mostly Cloudy,30,2013-03-22 22:53:00
5:53 PM,28.0,19.9,72,30.13,10.0,NNE,13.8,-,N/A,,Mostly Cloudy,30,2013-03-22 23:53:00
6:53 PM,26.1,19.0,75,30.16,10.0,ENE,10.4,-,N/A,,Mostly Cloudy,70,2013-03-23 00:53:00
7:53 PM,25.0,19.0,78,30.18,10.0,ENE,3.5,-,N/A,,Scattered Clouds,60,2013-03-23 01:53:00
8:53 PM,23.0,15.1,72,30.20,10.0,NNE,8.1,-,N/A,,Scattered Clouds,30,2013-03-23 02:53:00
9:53 PM,21.0,14.0,74,30.21,10.0,North,6.9,-,N/A,,Clear,10,2013-03-23 03:53:00
10:53 PM,19.9,12.0,71,30.23,10.0,NNE,5.8,-,N/A,,Partly Cloudy,30,2013-03-23 04:53:00
11:53 PM,19.9,12.0,71,30.25,10.0,SE,3.5,-,N/A,,Partly Cloudy,130,2013-03-23 05:53:00